Wind_Speed
28 24 21 19 16 16 14 13 14 14 12 10 9 5 4 3 2 3 5 4 4 5 5 1 1 2 3 3 3 3 3 1 2 4 7 7 5 9 9 10 9 8 9
31 30 27 23 22 23 22 20 19 16 12 10 11 10 9 5 5 5 5 5 5 6 3 3 3 2 2 2 1 2 3 2 2 4 5 7 7 9 8 7 4 2 5
34 30 27 26 27 25 22 20 18 15 15 14 12 10 10 7 6 6 6 7 5 5 4 3 2 2 2 3 2 1 1 0 2 4 3 3 3 8 7 3 2 0 2
32 32 31 32 33 29 24 22 21 19 18 15 13 12 11 9 9 7 6 4 4 2 2 3 2 4 4 2 1 3 3 2 2 3 3 3 4 5 5 9 7 5 3
34 33 33 33 32 30 27 25 22 19 18 16 13 11 9 8 8 11 8 5 5 5 4 1 2 3 6 5 3 4 5 3 2 2 2 3 3 4 6 7 7 8 4
22 22 29 30 33 31 29 27 25 21 17 17 15 14 12 9 7 9 8 4 3 4 6 4 2 4 3 4 5 7 8 6 5 3 2 2 4 4 5 8 8 7 4
2 5 5 12 27 30 27 24 23 24 22 17 13 11 10 10 9 8 6 4 4 4 8 6 7 7 6 7 5 7 8 5 6 7 7 7 5 3 6 9 8 6 6
18 17 12 7 3 8 21 26 24 22 21 17 13 11 8 7 9 9 7 7 5 5 5 7 12 12 10 7 5 4 5 6 5 4 7 9 9 8 6 7 7 8 10
13 15 29 21 14 15 18 23 21 18 16 15 13 10 8 7 7 9 9 10 9 7 6 4 7 9 10 10 6 6 8 7 8 9 8 7 7 9 8 8 7 5 3
29 29 41 36 31 25 26 23 23 18 15 12 11 9 9 9 7 7 9 10 11 8 8 8 7 8 12 12 9 7 9 8 6 7 11 11 11 11 11 13 10 7 3
4 12 26 39 46 42 34 37 25 19 16 13 10 9 9 11 9 8 9 11 9 7 7 8 8 5 5 8 8 10 10 9 7 8 9 9 8 9 13 16 16 13 6
5 8 18 14 17 28 38 31 28 21 16 12 9 9 9 8 10 11 12 12 11 9 8 7 5 4 7 9 11 11 9 10 11 9 9 9 8 7 2 9 13 12 9
8 14 19 22 22 16 20 31 22 16 13 10 8 8 8 8 11 12 15 16 16 15 11 10 7 7 10 12 12 12 11 12 12 13 12 9 6 6 0 4 6 10 11
8 6 9 18 23 25 22 18 14 12 9 8 9 8 6 9 11 12 17 19 19 20 17 15 14 14 15 15 16 15 11 12 13 16 17 12 9 6 7 9 10 12 13
1 4 4 9 13 13 12 11 11 11 11 10 6 7 9 12 10 10 10 12 16 20 18 17 18 17 16 16 17 18 16 15 15 15 19 19 16 14 13 11 13 12 13
11 5 2 2 4 4 6 6 6 5 5 8 10 11 9 11 11 9 9 10 10 13 18 19 19 18 17 18 19 20 18 17 16 17 17 19 21 21 21 18 15 16 15
12 10 10 4 8 7 5 4 4 3 6 9 12 8 9 11 13 12 11 10 10 12 14 16 16 15 17 18 18 15 18 19 15 17 20 19 20 21 21 21 20 17 16
4 4 3 10 8 2 3 2 4 7 9 10 9 5 3 5 5 5 10 9 6 7 9 10 11 10 8 10 10 10 12 13 11 12 17 19 19 18 19 20 18 18 18
14 16 15 13 12 13 12 12 11 10 11 10 9 10 9 8 8 7 4 3 3 4 3 2 3 4 5 7 7 9 9 8 8 9 8 7 6 8 13 15 15 15 14
11 9 9 12 14 15 14 13 12 11 12 11 10 10 7 5 9 10 10 10 8 6 6 4 5 6 7 8 9 10 11 12 10 7 9 10 9 6 8 9 9 6 7
14 13 13 14 14 12 11 11 10 10 10 8 8 7 5 6 7 6 7 7 7 5 5 4 5 6 6 7 8 10 9 9 11 12 12 11 13 12 11 9 12 14 12
22 22 21 22 21 19 15 11 11 9 9 8 7 7 5 6 5 3 3 4 5 3 2 3 2 3 6 8 10 12 9 10 9 10 12 12 9 10 10 12 10 13 14
21 21 20 19 17 16 14 12 13 13 11 7 4 4 4 5 6 4 4 4 6 5 4 5 6 5 5 6 7 7 7 7 6 6 8 7 8 9 10 11 13 14 16
19 19 19 18 15 14 12 12 11 11 10 8 3 1 3 6 5 5 6 9 11 13 12 13 14 14 14 14 14 15 15 14 11 10 8 8 9 9 10 11 12 13 14
14 14 13 13 14 13 11 8 7 8 9 9 10 11 12 12 10 11 13 15 17 16 15 18 18 20 23 24 24 25 24 21 19 15 15 15 14 13 14 14 14 14 14
12 13 14 11 9 9 7 6 5 5 7 10 10 12 14 15 16 17 16 14 14 17 18 19 20 19 20 21 22 22 25 27 26 24 23 23 22 21 21 20 19 18 17
Wind_Direction
197 196 202 210 208 203 200 197 193 191 191 190 183 181 165 128 103 124 125 107 134 127 140 110 75 107 102 90 86 88 83 200 217 280 275 318 320 345 267 252 262 277 277
199 199 200 201 198 196 197 196 190 189 189 190 185 185 181 177 160 159 150 129 139 158 132 132 120 87 83 53 68 90 65 65 243 270 300 319 319 341 336 271 241 265 317
202 199 199 200 193 197 198 195 195 192 183 182 187 191 186 183 171 167 162 165 138 156 162 165 184 208 327 2 354 351 76 206 280 271 290 306 295 350 4 6 37 282 337
207 207 205 199 198 199 197 199 191 189 185 188 195 196 199 195 196 188 182 179 165 161 180 173 218 243 259 269 342 21 17 2 324 289 276 298 320 322 343 8 1 349 2
206 209 210 209 204 200 196 190 191 193 193 192 192 202 209 219 220 210 199 194 209 221 212 231 314 321 252 233 266 325 329 323 334 343 307 301 306 329 3 360 351 336 306
215 211 217 220 209 202 197 191 186 186 192 191 196 194 201 212 221 201 215 232 222 242 202 214 252 312 291 248 288 307 306 290 288 273 283 291 292 303 329 343 346 0 336
91 355 231 221 210 205 204 196 194 187 187 191 194 200 203 214 211 211 229 248 287 254 236 243 239 248 221 222 262 306 307 262 275 264 255 249 260 274 317 321 323 316 289
61 32 14 31 292 252 216 205 201 196 187 184 188 200 208 210 218 231 248 258 272 284 247 278 267 264 244 237 242 303 334 268 272 265 270 265 253 266 282 298 304 303 297
84 8 296 287 282 251 243 234 209 200 195 180 184 196 207 221 231 236 251 267 276 281 246 292 300 256 240 232 248 294 322 327 258 265 272 274 269 261 262 264 279 302 290
283 234 249 261 243 220 202 223 211 203 201 189 189 196 216 221 233 232 247 257 272 279 263 258 269 272 251 231 240 278 305 312 295 285 264 264 262 258 248 252 238 227 264
221 261 270 265 238 216 191 191 214 195 193 189 193 203 222 227 233 242 240 259 274 280 281 282 273 265 237 241 269 293 301 303 302 307 304 284 288 255 234 233 231 219 214
28 22 13 341 188 157 158 155 207 187 182 176 186 205 223 234 248 243 247 256 271 282 284 292 284 251 251 269 286 301 308 301 303 299 296 299 328 6 281 231 212 209 233
86 84 80 83 93 110 144 183 177 175 178 182 197 215 224 237 250 249 248 249 253 260 269 278 285 270 268 278 293 297 295 295 293 293 285 278 308 303 100 163 201 226 246
123 135 168 146 163 174 174 165 161 175 175 189 197 217 246 267 277 270 257 248 246 249 253 264 273 281 287 293 302 305 291 288 295 279 276 278 273 280 266 252 255 259 254
4 242 217 165 166 166 164 170 176 183 186 192 221 265 282 280 287 296 292 267 251 249 254 263 273 277 286 294 302 307 307 297 287 292 269 263 263 264 263 263 263 259 242
20 349 332 140 120 172 178 177 195 212 252 271 286 285 293 271 280 281 264 267 252 247 252 255 265 276 287 298 304 307 305 300 292 294 294 272 264 259 257 257 252 251 248
35 45 90 44 325 315 266 273 325 11 299 289 249 254 268 285 283 265 250 248 255 253 244 259 269 284 295 300 299 299 301 301 299 288 284 282 277 271 264 250 246 242 252
115 151 235 265 275 271 239 228 112 114 90 75 81 67 9 316 323 280 252 259 255 269 278 287 293 295 300 312 323 326 342 331 307 291 286 281 279 269 265 256 248 251 256
113 119 115 110 100 94 97 95 90 85 86 76 72 50 44 48 50 48 40 43 7 11 341 21 15 337 329 322 331 337 344 346 7 20 7 6 341 294 273 263 261 262 264
106 109 103 105 104 101 95 99 105 105 93 75 61 55 42 44 57 58 56 56 59 49 29 39 22 5 10 13 355 6 360 355 349 355 348 349 339 350 351 324 293 281 283
115 112 111 105 94 94 96 100 107 107 99 89 88 82 64 66 57 41 40 38 36 35 28 32 14 16 11 14 16 10 23 4 12 8 358 2 348 350 341 322 319 327 304
101 98 94 94 93 86 85 100 100 101 106 109 101 93 84 74 55 45 54 36 20 11 4 14 7 7 17 20 19 22 8 7 357 8 3 357 2 356 358 352 354 334 321
95 94 93 91 88 87 85 86 84 78 72 68 81 75 52 32 5 295 275 293 293 285 291 303 306 322 341 348 341 330 328 327 310 322 337 333 341 352 359 10 5 6 354
94 92 90 88 88 90 92 96 83 65 51 50 61 46 311 327 344 348 284 289 301 294 286 288 290 291 290 288 288 284 280 273 265 274 292 307 314 315 321 329 336 343 344
73 74 74 73 71 69 70 69 53 41 22 5 356 344 329 308 306 312 311 312 308 314 296 281 286 282 273 273 277 280 281 280 266 267 270 276 284 288 291 295 302 309 321
72 63 61 58 59 46 35 26 15 333 327 323 311 310 309 306 298 305 304 301 300 303 296 289 290 292 295 291 288 287 279 274 271 266 265 268 270 276 278 280 285 288 295
Height
778 784 788 792 795 798 801 803 805 807 808 810 813 815 816 815 815 814 815 815 815 815 815 815 814 813 813 813 811 808 806 806 805 803 802 801 799 798 797 796 796 796 797
774 775 779 783 787 788 790 793 796 800 803 806 807 808 810 812 812 813 814 814 814 814 815 814 814 813 813 812 810 809 808 806 805 804 802 800 799 796 793 792 793 793 793
771 775 778 780 784 787 788 792 796 798 799 802 804 807 808 809 810 810 810 811 812 813 812 812 813 813 813 812 810 809 807 805 805 803 801 800 798 797 794 793 792 791 790
771 773 774 775 776 779 786 789 791 794 796 800 802 804 806 807 808 810 811 812 813 813 813 812 812 811 810 810 810 808 806 806 804 803 802 801 800 799 797 795 792 792 790
766 769 771 775 780 782 783 784 790 794 795 797 800 804 807 809 809 809 811 811 811 811 812 814 814 812 810 810 809 808 806 804 803 802 802 801 799 799 797 796 795 792 790
775 775 776 779 780 778 781 783 784 789 795 797 797 799 802 806 808 808 809 808 807 810 809 811 812 813 813 813 812 811 808 805 803 802 802 801 801 800 799 798 796 793 791
776 780 776 778 779 781 786 787 788 785 787 793 797 799 800 804 806 807 808 807 809 808 809 809 807 806 806 807 807 809 810 808 806 804 801 800 799 799 799 798 796 796 794
772 784 785 778 779 785 787 787 787 789 787 789 793 798 801 801 805 807 808 807 806 808 807 809 809 808 806 804 803 804 804 805 806 804 801 800 799 798 798 798 796 795 794
750 763 773 776 776 779 784 794 791 792 792 788 789 793 796 799 801 803 805 808 805 806 804 806 805 807 806 804 804 803 803 801 802 803 801 798 798 797 796 796 795 794 792
753 747 760 756 761 763 770 783 789 788 790 789 788 789 793 795 798 798 802 803 805 801 803 803 801 802 803 801 799 798 797 797 795 796 799 797 795 793 792 791 791 792 792
758 758 756 749 740 737 746 773 781 782 784 785 786 788 791 793 796 796 797 802 802 799 799 800 800 799 801 802 799 797 797 795 792 790 791 792 790 787 785 785 786 788 789
755 754 747 733 728 734 745 755 777 777 781 782 784 786 788 791 794 795 796 798 800 799 799 799 800 798 799 801 798 793 793 795 794 788 786 788 787 784 781 781 782 784 785
757 756 752 747 742 747 751 766 774 773 776 779 782 785 785 789 791 790 792 793 794 795 796 799 798 797 797 796 795 793 791 790 789 793 787 783 783 784 783 782 782 782 782
758 760 759 754 757 758 762 763 766 772 774 779 781 782 784 786 787 784 785 788 790 790 792 794 794 795 796 796 792 790 785 787 786 785 786 782 780 780 782 782 780 780 780
760 762 762 761 760 760 761 763 766 771 775 776 779 782 783 784 784 783 783 784 782 788 791 791 793 792 790 789 790 788 784 783 784 780 781 779 775 775 777 778 777 776 776
761 763 764 764 765 767 769 771 772 773 775 777 778 779 780 782 781 781 780 782 781 782 787 786 785 786 786 785 784 780 780 779 777 781 777 775 772 769 769 772 772 773 772
763 763 764 766 767 768 770 770 773 774 771 773 776 777 778 778 778 779 781 780 782 781 782 784 783 782 782 782 781 777 774 774 771 773 774 771 769 767 765 765 766 766 766
763 764 766 766 766 767 768 770 771 775 772 775 775 776 777 777 778 778 780 779 779 780 779 780 781 779 776 778 777 774 769 770 767 768 769 767 764 761 761 761 760 761 761
766 768 769 769 770 769 770 771 772 773 775 779 778 779 780 780 779 779 780 777 778 778 778 778 778 779 777 774 772 771 770 769 767 765 766 763 761 758 758 757 756 755 755
771 772 773 774 774 774 773 773 775 779 779 781 782 780 786 784 784 784 783 780 780 778 779 778 777 776 775 773 771 768 767 766 767 764 765 762 760 756 756 755 754 751 750
773 774 774 774 775 776 777 779 781 782 782 785 784 786 788 787 784 785 782 783 782 780 779 780 778 775 775 774 771 770 765 768 766 765 764 759 760 756 753 751 751 749 747
778 778 778 778 780 781 782 784 785 786 786 788 788 788 789 788 785 785 785 784 783 782 781 778 777 777 775 772 769 766 769 767 768 767 765 763 759 757 754 752 748 748 746
784 784 785 786 787 787 789 790 790 791 791 790 788 787 788 787 787 785 785 785 783 781 778 777 776 773 769 767 766 767 767 766 767 766 764 762 759 756 755 751 750 746 745
790 790 789 790 791 791 792 793 792 792 790 789 788 789 789 789 787 784 783 782 780 777 775 773 770 768 767 767 767 767 767 765 764 762 760 758 756 755 752 750 748 746 744
793 793 793 793 793 793 794 795 794 793 791 789 788 787 786 785 783 781 779 777 774 771 769 769 768 766 766 765 765 764 763 761 759 758 757 755 753 751 749 747 745 743 741
797 797 796 796 796 796 796 795 794 792 791 789 788 787 786 784 782 780 778 775 772 770 769 768 766 765 763 761 759 757 755 754 753 752 750 749 747 745 744 742 740 739 737